Volver al catálogo

FORMOSAT7-2/COSMIC2-2

ActivoMeteoVLEO
NORAD 44351·PAYLOAD·🇹🇼 Taiwan

Lanzado Jun 25, 2019 desde Cape Canaveral Space Force Station

Loading…

Próximos Pases (próximas 24 horas)

TLE

ActualizadoSource: Space-Track

Época: Sep 14, 2026, 08:43 UTC

1 44351U 19036N   26257.36352277  .00002022  00000-0  14642-3 0  9999
2 44351  23.9978 267.4696 0000868 129.8086 230.2492 14.96814450396960

Sigue FORMOSAT7-2/COSMIC2-2 en tiempo real con AllMySat

Download on the App Store